#timestamp,LO_Frequency,Hit,StdDev 
1530784815.9,286046998.0,N
1530784835.7,286046998.0,N
1530784855.5,286046997.3,N
1530784875.4,286046996.8,N
1530784895.2,286046996.6,N
1530784915.0,286046997.1,N
1530784915.9,286046997.1,N
1530784935.8,286046997.2,N
1530784955.6,286046996.8,N
1530784975.5,286046996.7,N
1530784995.3,286046996.6,N
1530785015.1,286046997.4,N
1530785035.9,286046997.8,N
1530785055.7,286046996.0,N
1530785075.5,286046996.2,N
1530785095.4,286046997.7,N
1530785115.2,286046996.8,N
1530785135.1,286046994.9,Y
1530785136.0,286046994.9,P
1530785155.8,286047000.7,N
1530785175.6,286046998.1,N
1530785195.5,286047001.0,N
1530785215.3,286047000.0,N
1530785235.1,286047000.9,N
1530785255.9,286047000.3,N
1530785275.7,286047002.7,N
1530785295.6,286047002.6,N
1530785315.4,286047000.2,N
1530785335.2,286047000.0,N
1530785355.1,286047002.6,N
1530785356.0,286047002.6,N
1530785375.8,286047002.3,N
1530785395.6,286047000.5,N
1530785415.5,286046999.9,N
1530785435.3,286046999.7,N
1530785455.2,286046999.7,N
1530785475.9,286047000.1,N
1530785495.7,286047000.1,N
1530785515.6,286047000.3,N
1530785535.4,286047000.1,N
1530785555.2,286046999.9,N
1530785575.1,286047002.8,N
1530785576.0,286047002.8,N
1530785595.8,286046999.8,N
1530785615.7,286047000.3,N
1530785635.5,286046998.3,N
1530785655.3,286047000.5,N
1530785675.2,286046998.5,N
1530785695.0,286046998.2,N
1530785695.9,286046998.2,N
1530785715.8,286047000.9,N
1530785735.6,286047000.0,N
1530785755.4,286047002.7,N
1530785775.3,286047002.7,N
1530785795.1,286047002.1,N
1530785815.8,286047002.7,N
1530785835.7,286047002.2,N
1530785855.5,286047001.8,N
1530785875.4,286047004.4,N
1530785895.2,286047001.3,N
1530785915.0,286047003.7,N
1530785915.9,286047003.7,N
1530785935.8,286047005.6,Y
1530785955.6,286047004.4,P
1530785975.4,286047004.3,N
1530785995.3,286047003.9,N
1530786015.1,286047003.6,N
1530786035.9,286047004.2,Y
1530786055.7,286046998.4,P
1530786075.5,286046998.2,N
1530786095.4,286046998.2,N
1530786115.2,286046999.1,N
1530786135.0,286047000.7,N
1530786135.9,286047000.7,N
1530786155.8,286047001.0,N
1530786175.6,286046998.8,N
1530786195.5,286046998.2,N
1530786215.3,286047001.0,N
1530786235.1,286046999.9,N
1530786255.9,286047000.1,N
1530786275.7,286047000.6,N
1530786295.5,286046998.9,N
1530786315.4,286046999.3,N
1530786335.2,286046998.7,N
1530786355.1,286046998.4,N
1530786356.0,286046998.4,N
1530786375.8,286047000.6,N
1530786395.6,286047000.4,N
1530786415.5,286047000.5,N
1530786435.3,286046998.2,N
1530786455.1,286046999.1,N
1530786475.9,286046995.2,Y
1530786495.7,286046996.9,P
1530786515.6,286046996.9,N
1530786535.4,286046999.0,N
1530786555.2,286046999.5,N
1530786575.1,286046997.7,N
1530786576.0,286046997.7,N
1530786595.8,286046996.2,Y
1530786615.7,286046995.6,P
1530786635.5,286046993.5,P
1530786655.3,286046995.7,N
1530786675.2,286046994.9,Y
1530786695.0,286047002.5,P
1530786695.9,286047002.5,N
1530786715.7,286047001.5,N
1530786735.6,286047002.1,N
1530786755.4,286046999.9,N
1530786775.3,286046999.3,N
1530786795.1,286046999.3,N
1530786815.8,286046997.6,N
1530786835.7,286046995.1,N
1530786855.5,286046996.9,N
1530786875.4,286046999.4,N
1530786895.2,286046998.6,N
1530786915.0,286046998.2,N
1530786915.9,286046998.2,N
1530786935.8,286046998.9,N
1530786955.6,286046999.0,N
1530786975.4,286046999.0,N
1530786995.3,286046999.2,N
1530787015.1,286046996.6,N
1530787035.9,286046998.7,N
1530787055.7,286046999.4,N
1530787075.5,286046998.8,N
1530787095.4,286047001.2,N
1530787115.2,286046998.7,N
1530787135.0,286047001.2,N
1530787135.9,286047001.2,N
1530787155.8,286046999.9,N
1530787175.6,286047002.0,N
1530787195.5,286047002.2,N
1530787215.3,286047000.9,N
1530787235.1,286046998.2,N
1530787255.9,286046998.1,N
1530787275.7,286047002.7,N
1530787295.5,286047002.2,N
1530787315.4,286047001.4,N
1530787335.2,286047003.5,N
1530787355.1,286047003.9,N
1530787356.0,286047003.9,N
1530787375.8,286047004.4,N
1530787395.6,286047002.1,N
1530787415.5,286047001.9,N
1530787435.3,286047001.9,N
1530787455.1,286047002.5,N
1530787475.9,286047002.0,N
1530787495.7,286047004.1,N
1530787515.6,286047003.0,N
1530787535.4,286047005.3,N
1530787555.2,286047004.2,N
1530787575.1,286047003.7,N
1530787576.0,286047003.7,N
1530787595.8,286047001.7,N
1530787615.7,286047000.3,N
1530787635.5,286047002.5,N
1530787655.3,286047002.1,N
1530787675.2,286047002.0,N
1530787695.9,286047002.1,N
1530787715.7,286047004.1,N
1530787735.6,286047003.7,N
1530787755.4,286047006.0,Y
1530787775.3,286046999.8,P
1530787795.1,286047001.1,N
1530787796.0,286047001.1,N
1530787815.8,286047000.4,N
1530787835.7,286046998.7,N
1530787855.5,286046998.3,N
1530787875.3,286046996.8,N
1530787895.2,286046997.1,N
1530787915.0,286046997.6,N
1530787915.9,286046997.6,N
1530787935.8,286046994.9,N
1530787955.6,286046994.9,N
1530787975.4,286046996.5,N
1530787995.3,286046997.9,N
1530788015.1,286046995.8,N
1530788035.8,286046993.7,N
1530788055.7,286046996.3,N
1530788075.5,286046998.0,N
1530788095.4,286046995.8,N
1530788115.2,286046995.2,N
1530788135.0,286046995.9,N
1530788135.9,286046995.9,N
1530788155.8,286046995.5,N
1530788175.6,286046995.7,N
1530788195.4,286046993.5,N
1530788215.3,286046995.6,N
1530788235.1,286046994.7,N
1530788255.9,286046992.4,Y
1530788275.7,286046995.6,P
1530788295.5,286046995.9,P
1530788315.4,286046995.9,P
1530788335.2,286046996.3,Y
1530788355.0,286046998.7,P
1530788356.0,286046998.7,N
1530788375.8,286046999.0,N
1530788395.6,286046999.3,N
